Temperature
21 20 19 20 25 29 28 28 29 28 28 27 27 27 26 26 25 24 22 21 20 20 20 20 20 20 19 19 19 19 19 19 19 19 19 19 19 19 19 19 19 19 19 19 19 19 19 19 19
20 19 20 24 29 28 28 28 28 28 27 27 26 26 26 25 24 22 21 21 20 20 20 20 20 20 19 19 19 19 19 19 19 19 19 19 19 19 19 19 19 19 19 19 19 19 19 19 19
20 20 23 29 29 29 28 28 28 28 27 27 26 26 25 24 23 22 21 21 20 20 20 20 20 20 19 19 19 19 19 19 19 19 19 19 19 19 19 19 19 19 19 19 19 19 19 19 19
20 22 26 29 29 29 29 29 29 28 27 27 27 26 24 22 22 22 21 20 20 20 20 19 20 19 19 19 20 19 19 19 19 19 19 19 19 19 19 19 19 19 19 19 19 19 19 19 19
21 26 30 30 29 29 29 29 28 29 28 27 26 26 24 22 22 21 21 21 20 20 20 19 20 20 19 19 19 19 19 19 19 19 19 19 19 19 19 19 19 19 19 19 19 19 19 19 19
25 29 30 29 29 29 29 28 29 29 28 27 26 26 24 22 21 21 21 21 21 20 20 19 20 20 20 19 19 19 19 19 19 19 19 19 19 19 19 19 19 19 19 19 19 19 19 19 19
27 30 30 30 29 29 29 28 29 29 28 27 26 26 24 22 22 21 21 21 20 20 20 20 20 19 19 19 19 19 19 19 19 19 19 19 19 19 19 19 19 19 19 19 19 19 19 19 19
26 30 30 30 30 29 29 28 28 28 27 26 26 26 25 22 22 21 21 21 21 20 20 20 20 19 19 19 19 19 19 19 19 19 19 19 19 19 19 19 19 19 19 19 19 19 19 19 19
26 30 30 30 30 30 29 29 28 27 27 26 25 25 24 22 22 22 21 21 20 20 20 20 20 20 20 19 19 19 19 19 19 19 19 19 19 19 18 19 19 19 19 19 19 19 19 19 19
28 30 30 30 31 30 29 29 28 28 28 26 25 24 23 22 22 22 22 21 21 20 20 20 20 19 20 19 19 19 19 19 19 18 19 19 19 19 18 19 19 18 18 18 18 18 19 18 18
30 30 30 30 30 30 30 29 28 29 28 27 26 24 23 23 23 22 22 21 21 20 20 20 20 19 19 19 19 19 19 19 19 18 18 19 18 18 18 18 18 18 18 18 18 18 18 18 18
30 30 30 30 29 29 30 29 29 28 27 26 25 24 24 23 23 23 22 21 21 20 20 20 20 19 19 19 19 19 19 19 19 18 18 18 18 18 18 18 18 18 18 18 18 18 18 18 18
30 30 30 29 29 29 29 29 28 28 26 26 25 24 24 23 23 22 22 21 20 20 20 20 19 19 19 19 19 19 19 19 19 18 18 18 18 18 18 18 18 18 18 18 18 18 18 18 18
30 30 30 30 29 29 29 29 28 27 26 25 25 24 24 23 23 22 22 21 21 20 20 20 19 19 19 19 19 19 19 19 19 18 18 18 18 18 18 18 18 18 18 18 18 18 18 18 18
30 30 31 30 30 29 30 29 29 27 26 26 25 24 23 23 22 22 22 21 21 20 20 19 19 19 19 19 19 19 19 19 18 18 18 18 18 18 18 18 18 18 18 18 18 18 18 17 17
31 31 31 30 30 29 30 29 29 27 27 26 25 24 23 23 22 22 21 21 21 20 20 19 20 19 19 19 19 19 19 19 18 18 18 18 18 18 18 18 18 18 18 18 18 18 18 17 17
31 31 30 30 30 30 30 29 29 27 27 26 25 25 24 23 22 22 21 21 20 20 20 20 20 19 19 19 19 19 19 18 18 18 18 18 18 18 18 18 18 18 18 18 18 17 17 17 17
30 31 30 30 30 30 30 29 29 28 27 27 26 25 24 24 23 22 21 21 20 20 20 20 19 19 19 19 19 18 18 18 18 18 18 18 18 18 18 18 18 18 18 18 18 17 17 17 17
31 31 30 30 30 30 29 29 29 29 28 28 27 26 25 24 23 22 21 21 21 20 20 20 19 19 19 19 19 18 18 18 18 18 18 18 18 18 18 18 18 18 18 18 18 17 17 17 17
31 31 30 30 30 29 29 29 30 29 28 28 27 26 25 25 23 22 21 21 21 20 20 20 20 19 19 19 19 18 18 18 18 18 18 18 18 18 18 18 18 18 18 18 17 17 17 17 17
31 31 31 30 30 30 29 30 29 29 28 27 27 27 26 25 24 23 22 21 21 20 20 20 20 20 19 19 19 18 18 18 18 18 18 18 18 18 18 18 17 17 17 17 17 17 17 17 17
31 31 31 30 30 30 30 30 30 30 29 28 28 27 26 25 25 24 23 22 21 21 20 20 20 20 20 19 19 19 19 18 18 18 18 18 18 18 18 17 17 17 17 17 17 17 17 17 18
31 31 31 30 30 30 30 30 30 30 29 29 28 27 26 26 25 24 23 22 21 21 20 20 20 20 19 19 19 19 18 18 18 18 18 17 17 17 17 17 17 17 17 17 17 17 17 17 17
31 30 30 31 31 30 30 30 30 30 30 29 29 28 26 26 25 24 23 22 21 21 20 20 19 19 19 19 18 18 18 18 18 18 17 17 17 17 17 17 17 17 17 17 17 17 17 17 17
31 30 30 30 30 30 30 30 30 30 30 30 29 28 26 26 25 24 23 22 21 21 20 20 19 19 19 19 18 18 18 18 17 17 17 17 17 17 17 17 17 17 17 17 17 17 17 17 17
31 31 30 29 29 30 30 30 30 30 29 29 28 27 26 26 25 24 23 22 21 21 20 20 19 19 19 18 18 18 18 18 17 17 17 17 17 17 17 17 16 17 17 17 17 16 17 17 17
31 31 32 31 30 30 30 30 30 30 29 29 28 27 26 26 25 24 23 22 21 21 20 20 19 19 19 18 18 18 18 17 17 17 17 17 17 17 16 16 16 16 16 16 16 16 16 16 16
31 31 31 31 29 29 30 30 30 30 29 29 28 27 26 25 25 24 23 22 21 21 20 20 19 19 18 18 18 18 17 17 17 17 17 16 16 16 16 16 16 16 16 16 16 16 16 16 16
30 30 30 31 30 29 29 30 30 30 29 29 28 27 26 25 25 24 23 22 21 21 20 20 19 19 18 18 18 18 17 17 17 16 16 16 16 16 16 16 16 16 16 16 16 16 16 16 16
31 31 31 30 29 30 30 30 30 30 29 29 28 26 25 24 24 23 23 22 21 21 20 19 19 19 18 18 18 18 17 17 17 16 16 16 16 16 16 16 15 15 15 15 15 15 15 15 15
Wind_Speed
11 8 5 4 4 3 10 8 8 7 6 7 7 6 7 8 7 5 4 4 4 4 5 5 5 5 5 4 4 3 3 3 3 3 3 3 3 5 7 8 8 9 9 10 10 10 11 11 11
7 5 5 4 2 7 10 9 9 9 7 5 6 7 7 8 7 4 4 4 4 5 5 6 7 5 4 4 3 3 3 3 3 3 3 3 4 5 7 8 8 8 9 9 9 9 10 11 11
5 5 4 1 7 10 9 8 8 7 6 5 5 6 6 6 5 4 5 4 5 6 6 8 7 5 5 4 3 3 3 3 3 3 3 4 4 5 6 7 7 7 7 7 8 8 9 10 11
4 4 4 3 11 11 9 7 6 6 6 6 5 6 6 6 4 5 6 5 5 6 6 9 6 5 5 4 4 3 3 3 4 4 3 4 4 4 5 6 6 6 6 6 7 8 9 9 10
4 4 1 8 12 10 9 7 6 7 7 7 6 7 7 6 6 6 6 5 5 6 6 8 7 6 5 5 5 5 4 5 5 4 3 3 4 4 5 6 6 6 6 5 6 6 8 9 10
3 3 5 9 11 8 8 6 6 8 8 7 6 7 6 5 5 5 5 5 6 5 6 8 7 6 5 5 5 5 6 6 5 4 4 3 3 4 5 5 5 5 5 4 5 6 7 8 9
4 3 7 9 9 9 7 6 6 7 8 7 5 6 5 5 4 4 5 5 6 6 6 6 5 6 5 5 5 5 5 5 5 5 4 3 3 5 6 5 5 5 5 4 5 6 7 8 9
4 2 6 8 8 8 6 5 6 7 7 6 4 4 5 5 4 5 6 6 6 6 6 5 5 5 4 6 7 6 5 5 5 5 5 4 4 6 7 6 6 5 4 4 6 7 7 8 9
4 1 6 7 7 6 5 5 6 5 6 6 5 6 6 7 5 5 6 6 6 6 6 5 5 5 5 5 6 5 6 6 5 5 5 3 4 5 7 7 7 6 5 5 7 8 8 8 10
3 3 7 5 5 4 4 4 4 3 5 5 6 7 7 7 5 5 6 6 7 7 6 6 5 5 5 5 5 4 4 6 5 6 5 5 6 5 6 8 7 6 6 7 8 7 8 6 6
1 3 4 3 3 3 3 3 3 2 4 4 5 6 7 6 5 5 6 6 7 7 6 6 6 5 5 4 4 4 3 4 5 6 5 5 4 4 4 4 5 5 5 4 6 5 5 5 4
0 2 2 2 2 2 2 3 3 4 5 4 5 6 7 6 5 5 6 6 6 7 6 6 6 5 5 4 4 4 4 4 4 5 6 5 4 4 5 4 4 3 3 3 3 4 5 5 5
0 1 2 2 2 2 2 2 3 4 4 5 6 7 6 6 5 6 6 6 6 5 5 5 5 5 4 4 3 4 4 4 4 4 5 5 4 4 5 4 4 4 4 4 4 5 6 5 5
1 1 1 2 2 2 2 2 2 3 5 6 6 6 6 6 5 6 5 5 5 4 4 5 4 5 4 3 3 3 3 3 4 4 5 5 4 4 4 4 4 4 5 5 5 6 5 5 5
1 1 1 1 1 1 1 1 3 4 5 6 6 6 5 5 5 4 4 4 4 4 4 4 4 4 4 4 3 3 3 4 4 4 5 5 5 4 3 4 4 5 5 6 5 6 5 5 5
4 4 1 1 0 1 5 1 4 4 5 5 5 5 5 5 5 4 4 4 4 4 4 4 4 5 4 4 3 3 4 4 4 4 5 5 5 4 3 4 4 5 4 4 4 4 5 4 4
3 3 2 0 1 1 3 1 2 4 4 5 5 6 5 5 5 4 4 4 4 4 4 4 4 4 3 4 4 4 4 4 4 4 4 4 4 4 3 4 4 4 3 3 3 4 4 4 3
3 4 3 2 1 3 3 2 2 4 4 5 6 6 6 6 5 5 5 5 4 4 4 3 3 3 2 3 3 3 4 4 3 4 4 4 4 4 4 4 4 3 4 4 4 4 3 2 2
5 5 3 2 2 4 4 3 3 4 5 6 6 7 7 6 6 6 6 6 5 4 4 3 3 3 2 2 2 2 3 3 3 4 4 4 4 4 4 4 4 3 4 4 4 3 3 2 2
7 6 3 1 2 4 4 5 4 5 6 6 6 7 7 7 7 7 6 6 6 5 4 4 4 3 3 2 2 2 2 2 3 3 4 3 4 4 4 4 3 3 3 3 3 2 1 2 1
7 5 4 3 3 5 5 5 4 4 5 6 6 7 8 8 8 8 8 7 6 5 5 4 4 4 3 3 3 3 3 2 3 3 3 3 3 3 4 3 3 2 2 3 2 1 1 1 1
5 3 4 5 6 2 4 3 3 4 5 6 6 7 8 8 9 8 9 8 7 6 5 5 5 4 4 4 3 3 3 3 2 2 3 3 3 3 3 2 2 1 1 2 1 1 1 1 1
3 2 4 5 6 5 4 5 1 3 3 4 6 7 7 8 8 8 8 8 7 6 6 6 5 4 4 3 4 3 3 3 3 2 3 2 3 3 3 2 2 1 1 1 1 0 1 1 1
4 5 5 7 7 5 3 5 1 1 1 2 5 6 7 7 8 8 8 8 7 7 6 6 6 5 4 4 4 3 3 3 3 2 2 2 2 2 3 3 2 1 1 1 0 0 1 1 1
7 8 5 6 5 3 1 4 1 2 0 1 3 6 7 7 8 8 9 9 8 8 7 6 6 5 5 5 4 3 3 3 3 2 2 1 2 2 2 2 2 1 1 1 1 0 1 1 1
8 9 6 5 4 2 3 3 0 1 0 1 3 5 6 7 8 9 9 9 9 8 8 7 7 6 5 5 4 3 2 2 2 2 1 1 1 2 2 1 1 1 1 1 1 1 1 1 1
8 9 8 8 7 6 3 2 2 3 3 4 5 5 6 7 8 8 9 9 9 9 8 8 7 6 6 5 5 4 3 2 2 2 2 1 1 1 1 1 0 1 1 1 1 1 1 1 2
6 6 7 8 6 7 5 4 1 2 2 4 5 5 5 6 7 8 8 9 9 9 9 8 7 7 6 5 4 4 3 3 2 2 2 1 1 1 1 0 0 0 0 1 2 2 1 2 1
8 8 7 7 7 8 6 1 3 1 1 3 4 5 5 6 7 8 8 8 9 8 9 8 7 7 6 6 5 4 3 3 2 2 1 1 1 1 0 1 1 1 1 1 1 2 2 2 2
8 9 9 8 7 8 8 2 5 3 1 1 2 4 5 5 6 7 8 9 9 8 8 8 7 7 7 6 5 5 4 3 2 1 1 1 1 0 1 1 1 1 1 2 2 3 2 2 2
Wind_Direction
178 181 207 234 239 73 57 49 43 43 41 38 36 38 41 32 25 48 49 47 48 71 82 98 101 119 128 129 125 121 121 131 142 146 152 142 137 152 158 158 161 166 169 169 169 170 171 171 171
173 186 230 245 3 62 59 47 48 46 58 53 50 51 55 52 46 67 71 54 60 72 78 83 93 104 106 107 109 119 121 134 143 143 148 143 140 148 157 160 165 168 169 170 174 174 174 175 175
178 226 264 314 46 49 55 50 56 57 57 49 54 49 48 54 53 58 67 74 76 78 77 86 87 82 81 87 94 111 127 145 144 132 135 139 139 149 157 161 162 164 166 168 171 176 178 178 178
214 235 239 54 61 54 54 57 60 59 56 52 58 64 65 49 48 71 83 75 78 83 79 86 79 69 72 82 87 88 100 125 131 125 122 125 126 136 146 152 156 160 164 168 175 182 184 182 181
248 263 100 72 65 59 57 54 48 48 55 60 64 76 72 63 77 88 92 85 78 76 76 86 79 66 67 78 75 72 80 100 106 109 105 110 118 130 141 147 152 158 159 163 173 181 183 182 182
262 268 57 64 69 66 63 56 52 58 68 69 72 78 78 90 92 88 87 82 78 74 75 84 93 75 76 80 72 68 78 90 90 85 85 100 113 122 131 136 140 144 145 153 171 173 171 177 177
308 23 59 64 72 74 62 54 47 58 65 64 66 77 91 97 96 97 91 86 79 73 71 70 85 92 107 104 83 75 76 85 80 74 73 82 109 128 131 131 134 136 139 149 154 155 156 160 162
298 324 67 62 67 72 72 67 53 50 65 69 58 66 89 106 108 100 95 91 80 74 72 70 69 68 74 96 94 83 83 84 79 77 69 64 109 136 137 133 123 123 130 137 132 138 143 148 149
272 348 56 50 51 69 78 78 69 64 78 71 61 68 89 112 118 107 103 97 85 77 76 75 75 68 61 70 87 93 97 91 90 89 76 58 72 96 118 98 104 112 116 119 122 128 134 140 148
282 33 50 40 40 64 80 70 78 85 80 78 82 88 104 118 120 109 101 96 88 84 80 79 74 68 63 68 77 73 78 78 66 61 55 59 63 74 86 106 111 118 118 124 124 132 143 155 139
329 24 35 41 43 51 81 79 75 72 69 72 99 118 125 121 117 105 99 92 87 90 86 84 79 75 68 68 70 68 69 72 70 63 53 54 54 67 74 86 108 115 122 113 121 139 121 119 116
10 23 14 21 38 37 59 73 72 53 56 76 100 123 129 127 115 103 101 97 89 85 85 80 79 77 66 59 61 59 62 64 57 55 42 49 48 46 48 54 60 70 84 84 95 110 104 100 105
59 30 19 21 53 66 81 75 68 70 79 95 108 121 127 123 113 102 102 99 90 91 91 85 83 81 80 75 52 59 56 58 70 59 51 45 51 49 50 51 47 56 67 78 90 97 99 98 99
17 359 23 84 91 104 97 85 98 88 111 117 122 125 124 116 113 108 105 104 101 100 96 94 91 87 84 83 71 63 65 70 66 67 60 52 54 53 55 59 51 61 71 71 79 85 91 87 87
233 227 159 116 112 133 232 105 98 115 129 130 131 130 127 123 123 115 105 106 104 103 97 94 95 86 79 81 83 80 74 76 71 70 69 60 59 59 65 67 68 69 78 81 82 85 89 93 91
234 244 234 108 272 249 269 58 104 136 147 144 144 142 145 139 134 126 119 114 111 109 105 100 93 89 87 82 78 79 76 80 80 76 76 69 66 66 63 73 75 79 84 85 84 89 90 87 82
236 299 341 12 218 266 274 313 124 159 166 160 163 161 158 153 152 145 139 133 126 120 117 110 94 89 88 95 98 89 84 77 77 75 74 74 74 72 71 72 76 86 84 85 83 81 80 85 81
304 313 307 312 278 271 270 259 182 183 189 178 177 176 172 170 167 162 159 151 141 131 126 121 119 106 106 110 104 96 93 89 82 79 72 73 81 79 76 83 79 83 86 85 83 84 79 78 74
285 287 300 322 265 267 275 272 236 209 208 199 194 188 184 180 168 164 166 163 156 150 144 143 135 124 125 120 117 109 100 96 91 81 73 77 75 75 74 78 79 78 82 81 91 93 103 98 91
261 269 276 279 241 269 279 272 244 217 214 210 203 198 194 184 174 173 174 169 170 164 160 158 154 147 148 128 126 118 103 102 94 81 79 79 78 77 85 79 91 87 96 99 95 93 90 109 119
255 273 289 291 262 235 265 245 201 197 203 206 208 203 198 194 186 178 176 175 175 171 169 158 152 149 146 142 145 134 132 131 110 98 90 73 71 70 76 85 82 91 107 108 116 129 166 153 143
254 270 263 260 259 263 263 288 175 193 196 200 203 200 196 194 190 181 174 175 177 173 166 160 157 151 147 149 138 140 131 115 102 105 87 81 72 68 78 83 91 100 99 114 169 133 225 228 219
270 263 249 251 260 275 253 279 131 175 201 199 199 197 195 190 185 182 178 173 174 170 165 158 156 150 149 151 143 153 138 125 118 107 97 88 83 76 71 74 83 91 95 83 31 61 261 241 274
217 213 218 233 249 261 271 273 296 129 217 197 190 187 188 183 179 177 172 167 169 166 165 160 157 154 156 159 151 152 137 126 120 117 111 114 98 88 73 75 71 72 55 47 339 249 221 280 312
223 244 238 233 232 253 160 264 306 31 35 201 183 180 181 176 173 170 168 167 168 166 164 160 157 158 160 159 157 158 152 149 142 139 121 116 105 92 75 63 59 51 45 14 335 275 312 289 284
225 246 258 274 276 271 198 260 177 130 134 168 167 165 166 171 170 170 169 169 169 167 165 164 164 164 161 158 153 149 156 159 133 117 112 112 88 74 78 74 65 40 16 355 343 304 325 301 292
227 238 264 270 272 271 248 238 211 164 160 156 155 156 160 166 169 171 171 170 169 168 166 166 165 165 164 157 149 147 149 129 116 132 144 118 111 111 97 103 73 32 5 341 305 328 322 312 288
252 245 245 255 268 268 255 248 241 173 173 168 167 165 160 162 168 171 170 169 166 166 163 164 163 162 157 153 156 146 143 143 138 133 106 89 89 67 94 79 19 8 309 308 290 282 308 293 297
207 222 238 252 262 271 273 273 63 78 180 183 174 169 163 162 163 165 167 164 162 163 161 161 159 157 156 154 152 148 148 141 139 139 132 114 71 32 354 348 338 328 330 318 291 296 292 294 304
237 232 231 244 249 256 275 275 82 72 79 142 159 153 154 152 153 158 160 161 162 163 162 161 160 159 158 156 157 157 152 153 162 151 131 124 109 323 334 321 322 309 324 316 302 301 308 299 298
Height
1498 1498 1499 1500 1494 1487 1490 1487 1483 1484 1486 1489 1489 1488 1488 1490 1492 1499 1499 1496 1495 1493 1490 1485 1483 1484 1486 1488 1489 1490 1490 1490 1491 1491 1491 1491 1491 1491 1493 1494 1496 1497 1499 1501 1502 1503 1505 1507 1508
1500 1499 1501 1498 1487 1493 1495 1487 1487 1488 1490 1491 1491 1491 1491 1494 1496 1498 1498 1497 1496 1494 1492 1488 1485 1486 1488 1489 1489 1489 1489 1490 1490 1491 1491 1491 1491 1492 1493 1494 1496 1497 1499 1500 1501 1503 1504 1506 1507
1500 1500 1501 1489 1488 1493 1495 1489 1489 1490 1492 1492 1492 1493 1494 1498 1499 1499 1500 1498 1497 1496 1494 1491 1489 1489 1489 1489 1489 1489 1488 1488 1489 1490 1491 1491 1491 1492 1493 1494 1495 1497 1498 1499 1500 1501 1502 1504 1506
1502 1502 1497 1488 1491 1489 1489 1490 1490 1490 1492 1493 1493 1494 1498 1501 1501 1501 1500 1500 1499 1498 1497 1494 1492 1491 1490 1490 1489 1488 1487 1486 1488 1490 1491 1491 1492 1492 1493 1494 1495 1496 1497 1498 1499 1499 1500 1502 1504
1503 1498 1488 1489 1491 1490 1489 1491 1491 1490 1492 1494 1494 1496 1500 1503 1502 1502 1501 1501 1500 1500 1499 1496 1494 1492 1491 1491 1490 1488 1487 1487 1488 1490 1491 1492 1492 1492 1493 1493 1495 1496 1496 1497 1496 1497 1498 1500 1502
1502 1493 1490 1493 1493 1491 1491 1493 1492 1492 1494 1496 1496 1497 1501 1504 1503 1503 1502 1502 1501 1501 1500 1498 1495 1494 1493 1492 1492 1490 1489 1490 1491 1492 1492 1492 1491 1492 1493 1493 1494 1495 1495 1495 1494 1495 1496 1498 1501
1500 1490 1491 1491 1493 1493 1494 1495 1494 1494 1495 1497 1498 1498 1501 1504 1503 1503 1503 1503 1503 1502 1502 1501 1499 1497 1496 1495 1494 1494 1493 1493 1493 1493 1493 1491 1490 1491 1492 1494 1495 1495 1495 1494 1493 1494 1495 1497 1500
1501 1492 1489 1490 1492 1494 1495 1496 1497 1496 1498 1500 1500 1499 1501 1504 1504 1504 1503 1503 1504 1503 1503 1502 1501 1500 1499 1499 1497 1497 1497 1496 1496 1495 1493 1491 1489 1489 1493 1495 1495 1495 1495 1494 1493 1494 1495 1497 1500
1501 1492 1492 1491 1492 1493 1495 1496 1498 1500 1500 1501 1502 1502 1504 1505 1505 1505 1505 1505 1505 1505 1504 1504 1504 1503 1502 1502 1501 1500 1500 1499 1499 1498 1495 1493 1491 1492 1495 1496 1496 1496 1495 1495 1494 1495 1496 1498 1501
1498 1493 1493 1492 1491 1492 1495 1496 1498 1498 1499 1501 1503 1505 1505 1506 1506 1506 1506 1506 1506 1506 1506 1506 1506 1505 1504 1504 1504 1504 1503 1502 1502 1501 1499 1498 1496 1496 1497 1498 1497 1497 1496 1496 1496 1496 1498 1500 1503
1496 1494 1493 1493 1494 1494 1495 1497 1498 1497 1498 1501 1503 1505 1506 1507 1507 1507 1507 1508 1508 1508 1508 1508 1508 1507 1507 1506 1506 1506 1505 1505 1505 1504 1503 1502 1501 1501 1501 1501 1500 1499 1498 1498 1498 1499 1500 1502 1504
1497 1495 1495 1495 1496 1496 1496 1497 1498 1499 1501 1504 1505 1506 1507 1508 1508 1509 1509 1510 1510 1511 1511 1511 1510 1509 1509 1508 1508 1507 1507 1507 1507 1506 1506 1505 1504 1504 1503 1503 1502 1501 1500 1498 1498 1500 1502 1504 1506
1495 1496 1496 1496 1496 1497 1497 1498 1499 1501 1504 1505 1506 1507 1508 1509 1510 1510 1511 1512 1512 1512 1513 1512 1512 1511 1510 1510 1510 1510 1510 1510 1510 1509 1509 1508 1508 1507 1506 1505 1505 1503 1502 1500 1500 1501 1503 1505 1507
1496 1496 1495 1496 1496 1497 1497 1498 1500 1503 1504 1506 1507 1508 1509 1510 1511 1512 1512 1513 1514 1514 1514 1514 1513 1513 1512 1512 1512 1512 1512 1512 1512 1512 1511 1510 1510 1509 1509 1508 1507 1506 1505 1504 1503 1504 1506 1508 1509
1497 1495 1493 1494 1496 1497 1497 1497 1499 1503 1504 1506 1508 1509 1510 1511 1512 1513 1513 1514 1514 1515 1515 1515 1515 1514 1514 1514 1514 1514 1515 1515 1514 1514 1513 1513 1512 1512 1511 1511 1510 1509 1508 1508 1508 1508 1509 1511 1512
1493 1491 1493 1493 1494 1496 1497 1499 1499 1503 1504 1506 1507 1509 1510 1512 1513 1514 1514 1515 1515 1515 1515 1515 1516 1515 1515 1515 1515 1516 1516 1516 1516 1515 1515 1515 1514 1514 1513 1513 1512 1512 1511 1511 1511 1512 1513 1513 1515
1491 1493 1495 1493 1493 1494 1494 1497 1498 1502 1503 1505 1507 1508 1510 1511 1513 1514 1515 1515 1516 1516 1516 1516 1516 1516 1516 1516 1516 1517 1517 1517 1517 1517 1517 1516 1516 1515 1515 1515 1514 1514 1514 1514 1514 1515 1515 1516 1517
1497 1494 1494 1494 1492 1493 1494 1494 1497 1500 1501 1502 1505 1507 1509 1510 1512 1513 1514 1515 1516 1516 1516 1516 1516 1516 1517 1517 1517 1518 1518 1518 1518 1518 1518 1517 1517 1517 1516 1516 1516 1516 1516 1516 1516 1516 1517 1518 1519
1491 1493 1494 1492 1491 1493 1494 1494 1494 1497 1499 1500 1502 1505 1507 1509 1511 1513 1514 1515 1516 1516 1516 1517 1517 1517 1517 1517 1518 1518 1519 1519 1519 1519 1519 1519 1518 1518 1518 1518 1517 1517 1518 1518 1518 1518 1519 1520 1520
1490 1492 1492 1491 1491 1493 1494 1493 1491 1493 1496 1498 1500 1503 1505 1507 1510 1512 1513 1514 1516 1516 1516 1517 1517 1517 1517 1517 1518 1519 1519 1520 1520 1520 1520 1520 1520 1519 1519 1518 1519 1519 1519 1519 1519 1520 1520 1521 1521
1489 1490 1491 1491 1491 1489 1492 1491 1489 1490 1494 1496 1498 1500 1502 1505 1508 1510 1512 1513 1515 1516 1516 1517 1517 1517 1518 1518 1519 1519 1519 1520 1521 1521 1521 1521 1520 1520 1520 1519 1520 1519 1520 1520 1520 1520 1520 1521 1522
1490 1485 1487 1490 1492 1491 1491 1497 1488 1486 1489 1492 1495 1497 1499 1502 1505 1508 1510 1512 1514 1515 1516 1516 1517 1517 1517 1518 1519 1519 1520 1521 1521 1521 1522 1521 1521 1521 1521 1520 1520 1520 1520 1520 1520 1520 1520 1520 1521
1486 1485 1486 1487 1489 1490 1488 1493 1487 1483 1487 1488 1491 1494 1497 1500 1503 1506 1509 1511 1513 1514 1515 1516 1516 1517 1517 1518 1518 1519 1520 1521 1522 1522 1522 1522 1522 1521 1521 1520 1520 1520 1520 1520 1519 1519 1519 1520 1521
1485 1486 1486 1485 1486 1499 1491 1495 1492 1481 1484 1484 1487 1492 1495 1498 1501 1504 1507 1509 1511 1513 1514 1515 1515 1516 1517 1518 1518 1519 1520 1520 1521 1522 1522 1522 1522 1522 1521 1521 1520 1520 1520 1519 1519 1519 1519 1519 1519
1485 1488 1497 1500 1499 1497 1487 1492 1489 1479 1480 1483 1486 1490 1493 1497 1500 1503 1505 1508 1510 1512 1513 1514 1515 1515 1516 1517 1518 1519 1520 1520 1521 1522 1522 1522 1522 1522 1521 1521 1520 1520 1519 1519 1518 1518 1518 1518 1517
1482 1483 1498 1507 1503 1493 1489 1491 1482 1479 1482 1484 1486 1489 1492 1495 1498 1501 1504 1506 1508 1510 1512 1513 1514 1515 1516 1517 1518 1519 1519 1521 1521 1521 1521 1522 1522 1521 1520 1520 1519 1519 1518 1518 1517 1518 1517 1517 1516
1480 1480 1476 1484 1488 1494 1487 1484 1479 1478 1481 1483 1486 1488 1491 1494 1497 1500 1503 1505 1507 1509 1511 1512 1513 1515 1516 1517 1518 1518 1519 1520 1520 1520 1521 1521 1521 1521 1520 1519 1519 1518 1517 1517 1516 1517 1516 1516 1516
1476 1475 1479 1485 1502 1504 1493 1486 1482 1479 1480 1482 1485 1488 1491 1493 1496 1499 1501 1503 1506 1508 1510 1512 1513 1514 1515 1516 1518 1519 1519 1519 1520 1520 1520 1520 1519 1519 1519 1518 1518 1517 1516 1516 1515 1515 1515 1514 1514
1480 1480 1480 1480 1483 1497 1500 1489 1473 1477 1478 1480 1483 1487 1490 1492 1494 1497 1500 1502 1504 1507 1509 1511 1512 1513 1514 1515 1516 1517 1518 1519 1519 1520 1520 1519 1519 1518 1518 1517 1517 1516 1515 1515 1514 1514 1513 1513 1513
1472 1473 1476 1487 1490 1486 1490 1487 1472 1476 1478 1480 1483 1487 1490 1492 1494 1496 1498 1501 1503 1506 1508 1509 1511 1512 1514 1515 1516 1516 1517 1518 1519 1519 1519 1518 1518 1518 1517 1517 1516 1515 1515 1513 1513 1513 1512 1512 1511